Regional Weather Roundup
Issued by NWS

Home | Current Version | Previous Version | Graphics & Text | Print | Product List | Glossary On
Versions: 1 2 3 4 5 6 7 8 9 10 11 12 13 14 15 16 17 18 19 20 21 22 23 24 25 26 27 28 29 30 31 32 33 34 35 36 37 38 39 40 41 42 43 44 45 46 47 48 49 50
000
ASUS43 KLOT 291902
RWRIL

ILLINOIS REGIONAL WEATHER ROUNDUP
NATIONAL WEATHER SERVICE CHICAGO/ROMEOVILLE IL
200 PM CDT SUN MAR 29 2015

NOTE: "FAIR" INDICATES FEW OR NO CLOUDS BELOW 12,000 FEET WITH NO
SIGNIFICANT WEATHER AND/OR OBSTRUCTIONS TO VISIBILITY.

* THESE STATIONS ARE NOT UNDER NWS QUALITY CONTROL. THEY ALSO MAY NOT
  REPORT WEATHER SUCH AS PRECIPITATION OR FOG.

ILZ001-002-007-009-015-016-024-292000-
NORTHWEST ILLINOIS

CITY           SKY/WX    TMP DP  RH WIND       PRES   REMARKS
MOLINE         MOSUNNY   49  36  61 SW21G29   29.84F
STERLING*      CLOUDY    43  34  70 W14G22    29.85F
$$

ILZ003-004-008-010-011-017-018-292000-
NORTH CENTRAL ILLINOIS

CITY           SKY/WX    TMP DP  RH WIND       PRES   REMARKS
ROCKFORD       CLOUDY    37  30  75 SW22      29.84F WCI  26
FREEPORT*      CLOUDY    37  33  86 SW21G26   29.82F WCI  26
$$

ILZ005-006-012>014-019>023-292000-
NORTHEAST ILLINOIS

CITY           SKY/WX    TMP DP  RH WIND       PRES   REMARKS
CHICAGO-OHARE  DRIZZLE   35  28  75 SW21G35   29.87S WCI  24
CHICAGO-MIDWAY CLOUDY    37  29  72 S20G32    29.89F WCI  27
AURORA         CLOUDY    36  28  73 S18G24    29.89F WCI  26
LANSING*       CLOUDY    35  28  75 S22G29    29.91F WCI  23
WAUKEGAN       CLOUDY    34  30  85 S22G38    29.82F WCI  22
DUPAGE AIRPORT CLOUDY    34  29  82 S17G29    29.87F WCI  23
WHEELING       CLOUDY    35  29  78 S22G36    29.88F WCI  23
NORTHERLY ISL    N/A     36  28  73 S23         N/A  WCI  24
$$

LMZ740>746-292000-
SOUTHERN LAKE MICHIGAN

STATION/POSITION SKY/WX   TEMP    WIND        PRES    VSBY  WAVE
                          AIR SEA DIR/SP/G                  HT/PER
                          (F)     (DEG/KT/KT) (MB)    (MI)  (FT/S)
HARRISON CRIB              36     200/ 38/ 45   N/A
BURNHAM HARBOR             37     210/ 19/ 25   N/A
CALUMET HARBOR             38     200/ 19/ 26 1012.9R
BURNS HARBOR               37     180/ 18/ 26 1013.5F
MICHIGAN CITY              37     160/ 22/ 28   N/A
$$

ILZ025>027-034>036-040-047-049-050-058-095>099-292000-
WEST-CENTRAL ILLINOIS

CITY           SKY/WX    TMP DP  RH WIND       PRES   REMARKS
QUINCY         CLOUDY    52  34  50 SW17G25   29.92F
$$

ILZ028>032-037-038-041>044-048-051>054-059>061-292000-
CENTRAL ILLINOIS

CITY           SKY/WX    TMP DP  RH WIND       PRES   REMARKS
DECATUR        PTSUNNY   49  29  46 SW21      29.98R
PEORIA         CLOUDY    45  31  58 SW17      29.91F
LINCOLN*       CLOUDY    46  31  56 S13G21    29.96F
SPRINGFIELD    PTSUNNY   51  29  42 S20G25    29.97F
TAYLORVILLE    NOT AVBL
$$

ILZ033-039-045-046-055>057-062-063-292000-
EAST-CENTRAL ILLINOIS

CITY           SKY/WX    TMP DP  RH WIND       PRES   REMARKS
CHAMPAIGN      PTSUNNY   45  30  55 S22       29.98R
DANVILLE*      CLOUDY    42  28  59 S30       29.94F
MATTOON        CLOUDY    47  26  44 S25G38    29.92F
$$

ILZ079-100>102-292000-
SOUTHWEST ILLINOIS

CITY           SKY/WX    TMP DP  RH WIND       PRES   REMARKS
BELLEVILLE     PTSUNNY   59  34  39 S13G23    29.94F
CAHOKIA*       MOSUNNY   58  34  40 S18G26    29.96F
SPARTA*        SUNNY     55  34  46 S21G30    30.01F
$$

ILZ064>066-069>071-074>076-080>082-084>086-088>090-092>094-292000-
SOUTH-CENTRAL ILLINOIS

CITY           SKY/WX    TMP DP  RH WIND       PRES   REMARKS
CARBONDALE     MOSUNNY   59  34  39 S26G33    30.06F
MARION         MOSUNNY   57  32  38 S22G32    30.07F
MT. VERNON     SUNNY     57  34  41 S22       30.04F
SALEM*         MOSUNNY   56  29  35 S22G31    30.00F
$$

ILZ067-068-072-073-078-083-087-091-292000-
SOUTHEAST ILLINOIS

CITY           SKY/WX    TMP DP  RH WIND       PRES   REMARKS
LAWRENCEVILLE  PTSUNNY   53  27  36 S28G35    30.06F
HARRISBURG*    MOSUNNY   57  32  37 S17G25    30.08F
ROBINSON*      CLOUDY    51  27  38 S21G32    30.06F
$$

ABBREVIATIONS USED IN REMARKS
   TC - TEMPERATURE IN CELSIUS
  WCI - WIND CHILL INDEX
   HX - HEAT INDEX
  VSB - VISIBILITY
$$



USA.gov is the U.S. government's official web portal to all federal, state and local government web resources and services.